| time (UTC) | temp C | wind direction | speed KPH | gust KPH | rain 1hr cm | rain 24hr cm | rain mn cm | humidity % | barometer mb |
| 20260504204512 | 24 | 267 | 4.8 | 16.1 | 0.00 | 0.00 | 0.00 | 48 | 1016.1 |
| 20260504203008 | 23 | 241 | 8.0 | 20.9 | 0.00 | 0.00 | 0.00 | 47 | 1016.3 |
| 20260504201508 | 24 | 219 | 6.4 | 20.9 | 0.00 | 0.00 | 0.00 | 48 | 1016.7 |
| 20260504200008 | 23 | 276 | 9.7 | 17.7 | 0.00 | 0.00 | 0.00 | 48 | 1017.0 |
| 20260504194503 | 24 | 254 | 3.2 | 19.3 | 0.00 | 0.00 | 0.00 | 48 | 1017.1 |
| 20260504193002 | 24 | 205 | 6.4 | 19.3 | 0.00 | 0.00 | 0.00 | 47 | 1017.3 |
| 20260504191621 | 25 | 230 | 6.4 | 25.7 | 0.00 | 0.00 | 0.00 | 48 | 1017.3 |
| 20260504190058 | 24 | 224 | 8.0 | 20.9 | 0.00 | 0.00 | 0.00 | 47 | 1017.6 |
| 20260504184556 | 24 | 261 | 4.8 | 16.1 | 0.00 | 0.00 | 0.00 | 46 | 1017.9 |
| 20260504183056 | 24 | 279 | 8.0 | 16.1 | 0.00 | 0.00 | 0.00 | 46 | 1017.9 |
| 20260504181556 | 24 | 171 | 3.2 | 16.1 | 0.00 | 0.00 | 0.00 | 47 | 1017.9 |
| 20260504180055 | 23 | 220 | 9.7 | 19.3 | 0.00 | 0.00 | 0.00 | 47 | 1018.1 |
| 20260504174557 | 24 | 199 | 6.4 | 22.5 | 0.00 | 0.00 | 0.00 | 46 | 1018.1 |
| 20260504173053 | 23 | 264 | 6.4 | 27.4 | 0.00 | 0.00 | 0.00 | 48 | 1018.1 |
| 20260504171555 | 23 | 215 | 9.7 | 24.1 | 0.00 | 0.00 | 0.00 | 47 | 1018.3 |
| 20260504081552 | 14 | 306 | 0.0 | 0.0 | 0.00 | 0.00 | 0.00 | 85 | 1018.1 |
| 20260504050021 | 16 | 246 | 0.0 | 3.2 | 0.00 | 0.00 | 0.00 | 79 | 1020.0 |
| 20260504044521 | 17 | 245 | 0.0 | 1.6 | 0.00 | 0.00 | 0.00 | 77 | 1019.8 |
| 20260504043020 | 17 | 245 | 0.0 | 3.2 | 0.00 | 0.00 | 0.00 | 77 | 1020.0 |
| 20260504041519 | 17 | 242 | 1.6 | 4.8 | 0.00 | 0.00 | 0.00 | 76 | 1020.0 |
| 20260504040021 | 17 | 240 | 1.6 | 3.2 | 0.00 | 0.00 | 0.00 | 74 | 1019.9 |
| 20260504034520 | 17 | 248 | 0.0 | 3.2 | 0.00 | 0.00 | 0.00 | 73 | 1020.1 |
| 20260504033018 | 18 | 248 | 1.6 | 6.4 | 0.00 | 0.00 | 0.00 | 72 | 1020.0 |
| 20260504031518 | 18 | 248 | 1.6 | 8.0 | 0.00 | 0.00 | 0.00 | 71 | 1020.2 |
| 20260504030018 | 18 | 244 | 0.0 | 4.8 | 0.00 | 0.00 | 0.00 | 68 | 1020.1 |
| 20260504024517 | 18 | 242 | 1.6 | 6.4 | 0.00 | 0.00 | 0.00 | 66 | 1019.9 |
| 20260504023016 | 18 | 246 | 3.2 | 8.0 | 0.00 | 0.00 | 0.00 | 64 | 1019.8 |
| 20260504021517 | 18 | 238 | 3.2 | 12.9 | 0.00 | 0.00 | 0.00 | 63 | 1019.7 |
| 20260504020015 | 18 | 240 | 3.2 | 9.7 | 0.00 | 0.00 | 0.00 | 62 | 1019.5 |
| 20260504014515 | 19 | 225 | 1.6 | 4.8 | 0.00 | 0.00 | 0.00 | 62 | 1019.4 |
| 20260504013019 | 19 | 234 | 1.6 | 6.4 | 0.00 | 0.00 | 0.00 | 59 | 1019.3 |
| 20260504011513 | 20 | 236 | 1.6 | 6.4 | 0.00 | 0.00 | 0.00 | 59 | 1019.2 |
| 20260504010013 | 20 | 229 | 1.6 | 8.0 | 0.00 | 0.00 | 0.00 | 58 | 1019.2 |
| 20260504004531 | 21 | 244 | 4.8 | 8.0 | 0.00 | 0.00 | 0.00 | 55 | 1019.0 |
| 20260504003017 | 21 | 239 | 3.2 | 8.0 | 0.00 | 0.00 | 0.00 | 52 | 1018.9 |
| 20260504001527 | 21 | 221 | 1.6 | 8.0 | 0.00 | 0.00 | 0.00 | 49 | 1018.8 |
| 20260504000012 | 22 | 217 | 3.2 | 6.4 | 0.00 | 0.00 | 0.00 | 48 | 1018.7 |
| 20260503234516 | 22 | 212 | 3.2 | 8.0 | 0.00 | 0.00 | 0.00 | 47 | 1018.8 |
| 20260503233009 | 22 | 244 | 4.8 | 9.7 | 0.00 | 0.00 | 0.00 | 46 | 1018.9 |
| 20260503231508 | 22 | 230 | 3.2 | 9.7 | 0.00 | 0.00 | 0.00 | 44 | 1018.9 |
| 20260503230010 | 23 | 195 | 8.0 | 12.9 | 0.00 | 0.00 | 0.00 | 44 | 1019.0 |
| 20260503224509 | 23 | 227 | 1.6 | 9.7 | 0.00 | 0.00 | 0.00 | 45 | 1019.1 |
| 20260503223009 | 23 | 242 | 3.2 | 9.7 | 0.00 | 0.00 | 0.00 | 43 | 1019.1 |
| 20260503221503 | 23 | 260 | 4.8 | 11.3 | 0.00 | 0.00 | 0.00 | 42 | 1019.3 |
| 20260503220006 | 23 | 213 | 4.8 | 11.3 | 0.00 | 0.00 | 0.00 | 43 | 1019.4 |
| 20260503214500 | 23 | 198 | 6.4 | 11.3 | 0.00 | 0.00 | 0.00 | 41 | 1019.5 |
| 20260503213059 | 23 | 211 | 6.4 | 16.1 | 0.00 | 0.00 | 0.00 | 43 | 1019.7 |
| 20260503211558 | 23 | 254 | 6.4 | 11.3 | 0.00 | 0.00 | 0.00 | 42 | 1019.9 |
| 20260503210058 | 23 | 243 | 6.4 | 12.9 | 0.00 | 0.00 | 0.00 | 41 | 1020.1 |